Total_Precipitation_Accumulation
0.55 0.58 0.67 0.83 1.02 1.06 1.08 1.22 1.28 1.47 1.66 1.82 1.99 2.03 2.02 1.98 1.99 1.92 1.86 1.80 1.84 1.87 1.92 1.88 2.00 2.05 1.97 1.86 1.76 1.67 1.60 1.46 1.33 1.39 1.46 1.37 1.12 0.94 0.86 0.83 0.81 0.71 0.60
0.58 0.65 0.72 0.81 1.02 1.10 1.06 1.17 1.31 1.43 1.50 1.61 1.75 1.86 1.95 2.01 2.02 1.95 1.97 1.84 1.76 1.75 1.85 1.88 1.84 1.86 1.86 1.83 1.75 1.69 1.64 1.60 1.47 1.45 1.54 1.57 1.51 1.19 0.89 0.81 0.80 0.79 0.76
0.63 0.67 0.73 0.82 0.99 1.13 1.13 1.13 1.26 1.42 1.50 1.63 1.80 1.93 2.11 2.17 2.24 2.07 1.94 1.88 1.80 1.69 1.69 1.80 1.84 1.80 1.77 1.75 1.70 1.62 1.54 1.53 1.43 1.28 1.44 1.53 1.35 1.12 0.93 0.82 0.74 0.72 0.78
0.64 0.70 0.72 0.80 0.94 1.05 1.17 1.19 1.30 1.43 1.49 1.68 1.85 1.84 1.98 2.01 1.98 1.88 1.81 1.76 1.76 1.72 1.63 1.62 1.70 1.75 1.72 1.63 1.60 1.61 1.55 1.56 1.54 1.35 1.18 1.17 1.10 1.10 0.98 0.86 0.82 0.78 0.75
0.61 0.69 0.72 0.71 0.82 0.94 1.09 1.19 1.33 1.47 1.54 1.61 1.79 1.84 1.79 1.83 1.90 1.95 1.89 1.81 1.76 1.70 1.63 1.60 1.60 1.61 1.61 1.53 1.51 1.56 1.59 1.59 1.55 1.45 1.24 1.10 0.95 0.90 1.00 0.87 0.79 0.87 0.85
0.66 0.68 0.67 0.66 0.77 0.91 1.05 1.18 1.29 1.40 1.53 1.57 1.67 1.85 1.80 1.75 1.82 1.95 2.00 1.94 1.85 1.76 1.62 1.53 1.52 1.50 1.46 1.45 1.43 1.44 1.43 1.47 1.50 1.44 1.32 1.24 1.17 1.00 0.98 0.93 0.75 0.77 0.82
0.66 0.71 0.61 0.64 0.70 0.82 0.98 1.12 1.28 1.33 1.39 1.47 1.57 1.66 1.80 1.77 1.72 1.72 1.79 1.94 1.92 1.79 1.68 1.60 1.49 1.44 1.39 1.35 1.35 1.39 1.39 1.34 1.37 1.39 1.32 1.22 1.13 1.03 1.06 1.15 1.04 0.92 0.83
0.61 0.65 0.62 0.64 0.67 0.72 0.84 1.00 1.13 1.29 1.41 1.45 1.51 1.56 1.66 1.79 1.71 1.66 1.59 1.70 1.77 1.65 1.56 1.62 1.54 1.44 1.42 1.42 1.38 1.36 1.36 1.38 1.32 1.26 1.26 1.27 1.16 1.11 1.17 1.29 1.39 1.33 1.03
0.66 0.62 0.62 0.66 0.65 0.71 0.78 0.92 1.01 1.17 1.37 1.50 1.52 1.54 1.59 1.68 1.70 1.65 1.62 1.62 1.62 1.63 1.59 1.60 1.59 1.52 1.53 1.56 1.56 1.51 1.39 1.36 1.36 1.31 1.24 1.25 1.23 1.18 1.15 1.18 1.32 1.59 1.46
0.73 0.69 0.64 0.70 0.69 0.72 0.76 0.82 0.97 1.08 1.23 1.43 1.59 1.58 1.55 1.54 1.64 1.70 1.71 1.68 1.64 1.64 1.63 1.63 1.63 1.58 1.52 1.58 1.64 1.58 1.47 1.45 1.40 1.41 1.40 1.28 1.20 1.22 1.25 1.28 1.26 1.32 1.47
0.74 0.69 0.63 0.64 0.68 0.72 0.81 0.84 0.93 1.04 1.15 1.26 1.44 1.56 1.55 1.54 1.60 1.66 1.63 1.66 1.66 1.65 1.60 1.55 1.57 1.63 1.60 1.54 1.60 1.57 1.51 1.50 1.42 1.39 1.44 1.33 1.23 1.32 1.36 1.41 1.41 1.34 1.37
0.65 0.66 0.60 0.61 0.68 0.76 0.84 0.92 0.96 0.95 1.04 1.15 1.28 1.43 1.52 1.53 1.55 1.55 1.59 1.66 1.67 1.64 1.57 1.52 1.52 1.56 1.57 1.54 1.54 1.53 1.49 1.48 1.45 1.40 1.42 1.41 1.33 1.34 1.37 1.46 1.45 1.36 1.28
0.64 0.67 0.67 0.64 0.67 0.76 0.84 0.91 0.99 0.94 0.95 1.11 1.22 1.36 1.47 1.46 1.46 1.41 1.48 1.67 1.76 1.72 1.60 1.54 1.54 1.57 1.62 1.57 1.49 1.54 1.51 1.42 1.36 1.34 1.39 1.42 1.42 1.35 1.31 1.40 1.45 1.39 1.32
0.57 0.65 0.76 0.72 0.66 0.70 0.76 0.79 0.91 0.96 0.96 1.01 1.15 1.28 1.39 1.38 1.34 1.31 1.33 1.48 1.63 1.73 1.66 1.54 1.51 1.57 1.69 1.69 1.63 1.67 1.61 1.48 1.35 1.25 1.26 1.34 1.47 1.49 1.48 1.49 1.46 1.49 1.56
0.52 0.66 0.76 0.75 0.76 0.77 0.78 0.76 0.79 0.91 0.98 0.96 1.05 1.13 1.26 1.33 1.29 1.25 1.28 1.38 1.49 1.54 1.59 1.60 1.54 1.58 1.80 2.00 2.10 1.96 1.68 1.49 1.41 1.23 1.15 1.23 1.49 1.70 1.86 1.90 1.75 1.76 1.91
0.48 0.55 0.64 0.70 0.79 0.86 0.88 0.84 0.82 0.87 0.95 0.94 1.00 1.04 1.18 1.31 1.31 1.24 1.27 1.40 1.49 1.50 1.52 1.57 1.56 1.53 1.72 2.13 2.33 1.93 1.54 1.40 1.37 1.31 1.17 1.17 1.43 1.61 1.78 1.93 1.89 1.89 2.07
0.44 0.46 0.56 0.68 0.77 0.85 0.87 0.88 0.85 0.88 0.95 0.96 0.98 1.02 1.15 1.22 1.29 1.28 1.30 1.41 1.50 1.50 1.49 1.50 1.52 1.49 1.56 1.94 2.14 1.87 1.51 1.36 1.30 1.24 1.20 1.22 1.30 1.45 1.48 1.63 1.69 1.68 1.83
0.47 0.47 0.55 0.67 0.70 0.76 0.80 0.84 0.80 0.92 0.98 0.98 0.97 1.01 1.09 1.13 1.24 1.29 1.31 1.43 1.50 1.46 1.45 1.47 1.46 1.44 1.50 1.82 2.04 1.85 1.54 1.42 1.35 1.31 1.22 1.16 1.20 1.33 1.51 1.61 1.59 1.48 1.52
0.51 0.52 0.56 0.64 0.63 0.69 0.75 0.80 0.77 0.85 0.93 0.97 0.92 0.94 1.01 1.06 1.16 1.23 1.31 1.40 1.50 1.46 1.41 1.38 1.43 1.40 1.42 1.73 2.05 1.92 1.57 1.49 1.40 1.38 1.29 1.16 1.11 1.33 1.51 1.48 1.46 1.38 1.40
0.45 0.52 0.54 0.57 0.59 0.64 0.68 0.72 0.77 0.80 0.88 0.93 0.85 0.88 0.95 0.99 1.09 1.15 1.24 1.32 1.36 1.38 1.39 1.34 1.35 1.35 1.33 1.56 1.96 2.06 1.61 1.49 1.40 1.39 1.33 1.39 1.34 1.45 1.46 1.35 1.43 1.55 1.42
0.44 0.47 0.49 0.53 0.58 0.61 0.63 0.66 0.74 0.80 0.84 0.92 0.85 0.87 0.91 0.95 1.03 1.11 1.13 1.21 1.28 1.30 1.37 1.36 1.33 1.31 1.33 1.42 1.69 2.04 1.74 1.56 1.41 1.39 1.39 1.33 1.49 1.50 1.46 1.42 1.39 1.57 1.49
0.44 0.46 0.48 0.51 0.55 0.57 0.61 0.64 0.68 0.75 0.82 0.86 0.86 0.91 0.95 0.97 1.00 1.05 1.05 1.09 1.21 1.28 1.32 1.37 1.39 1.37 1.34 1.39 1.60 1.84 1.79 1.67 1.45 1.37 1.28 1.26 1.45 1.49 1.51 1.46 1.51 1.57 1.53
0.47 0.48 0.51 0.50 0.52 0.56 0.61 0.68 0.71 0.73 0.81 0.84 0.84 0.90 0.99 1.01 1.02 1.02 1.02 1.07 1.14 1.23 1.28 1.30 1.31 1.33 1.30 1.39 1.65 1.62 1.64 1.64 1.54 1.52 1.54 1.48 1.56 1.57 1.47 1.43 1.49 1.44 1.34
0.51 0.52 0.55 0.53 0.54 0.56 0.63 0.71 0.75 0.73 0.78 0.82 0.83 0.88 0.94 0.99 1.04 1.00 0.95 0.97 1.07 1.19 1.22 1.24 1.20 1.16 1.20 1.40 1.59 1.49 1.45 1.53 1.60 1.65 1.63 1.61 1.62 1.58 1.51 1.44 1.32 1.22 1.24
0.54 0.55 0.57 0.59 0.60 0.59 0.66 0.72 0.74 0.74 0.77 0.76 0.75 0.81 0.84 0.93 1.04 1.03 0.97 0.96 0.98 1.16 1.29 1.24 1.20 1.22 1.33 1.51 1.66 1.58 1.54 1.57 1.64 1.71 1.75 1.68 1.63 1.61 1.47 1.29 1.16 1.12 1.20
0.56 0.57 0.58 0.60 0.65 0.65 0.67 0.72 0.74 0.72 0.71 0.73 0.71 0.74 0.79 0.84 0.93 0.98 1.01 1.11 1.11 1.14 1.15 1.15 1.20 1.19 1.34 1.45 1.46 1.49 1.56 1.66 1.73 1.77 1.73 1.55 1.38 1.31 1.25 1.17 1.10 1.08 1.09